STARLINK-31974 (59885 NORAD) Tracking and Keplerian Element Data

This shows tracking and keplerian element data for the satellite.

Feedback or suggestion? Click here.




ElementValue
Catalog59885
NameSTARLINK-31974
Epoch Orbit281
Epoch Day160.16667824
Epoch Year2024
RAAN174.4111
Inclination43.004
Eccentricity0.0001522
Argument of Perigee257.6901
Mean Anonmoly315.9024
Mean Motion15.79983581
Decay Rate-0.00955262
L11 59885U 24100A 24160.16667824 -.00955262 00000+0 -55655-2 0 9993
L22 59885 43.0040 174.4111 0001522 257.6901 315.9024 15.79983581 2818



Live tracking and technical data element details for STARLINK-31974 (NORAD 59885). STARLINK-31974 can be tracked NOW for your location showing map with azimuth and elevation plus other details from your city location.







IsCatalogInMostPopularTable: catalog: 59885, numindb: 5
Update: records affected: 1



GetName: 59885 STARLINK-31974

Hit Count: updated at: Tue, 16 Jul 2024 02:47:17 GMT